Hickory, NC

10:40 AM EDT on April 29, 2017 (GMT -0400)
Hickory Regional

Weather History for KHKY - June, 2012

Change the Weather History Date:

Monday, June 18, 2012

  Actual Average Record
Temperature  
Mean Temperature 75 °F -  
Max Temperature 84 °F 83 °F 96 °F (1952)
Min Temperature 66 °F 64 °F 50 °F (1961)
Cooling Degree Days 10    
Growing Degree Days 25 (Base 50)    
Moisture  
Dew Point 63 °F    
Average Humidity 68    
Maximum Humidity 87    
Minimum Humidity 49    
Precipitation  
Precipitation 0.00 in - - ()
Sea Level Pressure  
Sea Level Pressure 30.02 in    
Wind  
Wind Speed 3 mph (SSW)    
Max Wind Speed 12 mph    
Max Gust Speed 16 mph    
Visibility 10 miles    
Events      
Averages and records for this station are not official NWS values.
T = Trace of Precipitation, MM = Missing Value Source: NWS Daily Summary

Daily Weather History Graph

Daily Weather History Graph

Search for Another Location

Airport or City:

Trip Planner

Search our weather history database for the weather conditions in past years. The results will help you decide how hot, cold, wet, or windy it might be!

Date:

Astronomy

Jun. 18, 2012 Rise Set
Actual Time 6:09 AM EDT 8:44 PM EDT
Civil Twilight 5:39 AM EDT 9:14 PM EDT
Nautical Twilight 5:01 AM EDT 9:51 PM EDT
Astronomical Twilight 4:20 AM EDT 10:33 PM EDT
Moon 5:21 AM EDT (6/18) 8:02 PM EDT (6/18)
Length of Visible Light 15h 35m
Length of Day
14h 34m
Waning Crescent, 1% of the Moon is Illuminated
Jun 18
Waning Crescent
Jun 19
New
Jun 26
First Quarter
Jul 3
Full
Jul 10
Last Quarter

Hourly Weather History & Observations

Time (EDT) Temp. Heat Index Dew Point Humidity Pressure Visibility Wind Dir Wind Speed Gust Speed Precip Events Conditions
12:53 AM 70.0 °F - 62.1 °F 76% 30.01 in 10.0 mi SSW 3.5 mph - N/A   Mostly Cloudy
1:53 AM 71.1 °F - 62.1 °F 73% 30.01 in 10.0 mi Calm Calm - N/A   Overcast
2:53 AM 69.1 °F - 61.0 °F 75% 30.00 in 10.0 mi Calm Calm - N/A   Partly Cloudy
3:53 AM 66.9 °F - 61.0 °F 81% 29.99 in 10.0 mi Calm Calm - N/A   Partly Cloudy
4:53 AM 66.0 °F - 61.0 °F 84% 29.99 in 10.0 mi Calm Calm - N/A   Clear
5:53 AM 66.0 °F - 62.1 °F 87% 30.00 in 10.0 mi Calm Calm - N/A   Clear
6:53 AM 66.0 °F - 62.1 °F 87% 30.02 in 10.0 mi Calm Calm - N/A   Clear
7:53 AM 69.1 °F - 62.1 °F 78% 30.03 in 10.0 mi Calm Calm - N/A   Overcast
8:53 AM 69.1 °F - 62.1 °F 78% 30.04 in 10.0 mi South 3.5 mph - N/A   Overcast
9:53 AM 72.0 °F - 63.0 °F 73% 30.05 in 10.0 mi Variable 4.6 mph - N/A   Overcast
10:53 AM 75.0 °F - 63.0 °F 66% 30.05 in 10.0 mi Calm Calm - N/A   Clear
11:53 AM 79.0 °F - 64.9 °F 62% 30.05 in 10.0 mi Calm Calm - N/A   Clear
12:53 PM 80.1 °F 81.9 °F 64.9 °F 60% 30.05 in 10.0 mi South 3.5 mph - N/A   Clear
1:53 PM 81.0 °F 82.5 °F 64.0 °F 56% 30.02 in 10.0 mi South 5.8 mph - N/A   Partly Cloudy
2:53 PM 82.0 °F 83.8 °F 64.9 °F 56% 30.00 in 10.0 mi Variable 6.9 mph - N/A   Clear
3:53 PM 82.9 °F 84.4 °F 64.0 °F 53% 30.00 in 10.0 mi South 11.5 mph 16.1 mph N/A   Partly Cloudy
4:53 PM 84.0 °F 84.9 °F 63.0 °F 49% 29.99 in 10.0 mi SSW 8.1 mph - N/A   Scattered Clouds
5:53 PM 82.0 °F 83.1 °F 63.0 °F 52% 30.00 in 10.0 mi South 5.8 mph - N/A   Mostly Cloudy
6:53 PM 82.0 °F 83.1 °F 63.0 °F 52% 30.00 in 10.0 mi SSW 6.9 mph - N/A   Mostly Cloudy
7:53 PM 80.1 °F 81.5 °F 63.0 °F 56% 30.01 in 10.0 mi South 5.8 mph - N/A   Partly Cloudy
8:53 PM 77.0 °F - 63.0 °F 62% 30.03 in 10.0 mi South 3.5 mph - N/A   Partly Cloudy
9:53 PM 75.9 °F - 63.0 °F 64% 30.04 in 10.0 mi SSW 4.6 mph - N/A   Clear
10:53 PM 73.9 °F - 63.0 °F 68% 30.06 in 10.0 mi South 4.6 mph - N/A   Clear
11:53 PM 72.0 °F - 63.0 °F 73% 30.06 in 10.0 mi Calm Calm - N/A   Clear